Year,Month,Day,Hour,Minute,Value (Times are PST for temperature in C)
2013,09,02,00,00,13.20
2013,09,02,00,01,13.20
2013,09,02,00,02,13.20
2013,09,02,00,03,13.20
2013,09,02,00,04,13.20
2013,09,02,00,05,13.20
2013,09,02,00,06,13.20
2013,09,02,00,07,13.20
2013,09,02,00,08,13.20
2013,09,02,00,09,13.20
2013,09,02,00,10,13.20
2013,09,02,00,11,13.20
2013,09,02,00,12,13.20
2013,09,02,00,13,13.20
2013,09,02,00,14,13.20
2013,09,02,00,15,13.20
2013,09,02,00,16,13.20
2013,09,02,00,17,13.20
2013,09,02,00,18,13.20
2013,09,02,00,19,13.10
2013,09,02,00,20,13.10
2013,09,02,00,21,13.10
2013,09,02,00,22,13.10
2013,09,02,00,23,13.20
2013,09,02,00,24,13.20
2013,09,02,00,25,13.20
2013,09,02,00,26,13.20
2013,09,02,00,27,13.20
2013,09,02,00,28,13.20
2013,09,02,00,29,13.20
2013,09,02,00,30,13.20
2013,09,02,00,31,13.20
2013,09,02,00,32,13.20
2013,09,02,00,33,13.20
2013,09,02,00,34,13.20
2013,09,02,00,35,13.20
2013,09,02,00,36,13.20
2013,09,02,00,37,13.20
2013,09,02,00,38,13.10
2013,09,02,00,39,13.10
2013,09,02,00,40,13.10
2013,09,02,00,41,13.10
2013,09,02,00,42,13.10
2013,09,02,00,43,13.10
2013,09,02,00,44,13.10
2013,09,02,00,45,13.10
2013,09,02,00,46,13.10
2013,09,02,00,47,13.10
2013,09,02,00,48,13.20
2013,09,02,00,49,13.20
2013,09,02,00,50,13.20
2013,09,02,00,51,13.20
2013,09,02,00,52,13.20
2013,09,02,00,53,13.20
2013,09,02,00,54,13.20
2013,09,02,00,55,13.20
2013,09,02,00,56,13.20
2013,09,02,00,57,13.20
2013,09,02,00,58,13.20
2013,09,02,00,59,13.20
2013,09,02,01,00,13.20
2013,09,02,01,01,13.20
2013,09,02,01,02,13.20
2013,09,02,01,03,13.20
2013,09,02,01,04,13.20
2013,09,02,01,05,13.20
2013,09,02,01,06,13.20
2013,09,02,01,07,13.20
2013,09,02,01,08,13.20
2013,09,02,01,09,13.10
2013,09,02,01,10,13.10
2013,09,02,01,11,13.00
2013,09,02,01,12,13.00
2013,09,02,01,13,13.00
2013,09,02,01,14,13.00
2013,09,02,01,15,13.00
2013,09,02,01,16,13.00
2013,09,02,01,17,13.00
2013,09,02,01,18,13.00
2013,09,02,01,19,13.00
2013,09,02,01,20,13.00
2013,09,02,01,21,13.00
2013,09,02,01,22,13.10
2013,09,02,01,23,13.10
2013,09,02,01,24,13.10
2013,09,02,01,25,13.10
2013,09,02,01,26,13.10
2013,09,02,01,27,13.10
2013,09,02,01,28,13.10
2013,09,02,01,29,13.10
2013,09,02,01,30,13.10
2013,09,02,01,31,13.10
2013,09,02,01,32,13.00
2013,09,02,01,33,13.00
2013,09,02,01,34,13.00
2013,09,02,01,35,12.90
2013,09,02,01,36,12.90
2013,09,02,01,37,12.90
2013,09,02,01,38,12.90
2013,09,02,01,39,12.90
2013,09,02,01,40,12.90
2013,09,02,01,41,12.90
2013,09,02,01,42,12.90
2013,09,02,01,43,12.90
2013,09,02,01,44,12.90
2013,09,02,01,45,12.90
2013,09,02,01,46,12.90
2013,09,02,01,47,12.90
2013,09,02,01,48,12.90
2013,09,02,01,49,12.90
2013,09,02,01,50,12.90
2013,09,02,01,51,12.90
2013,09,02,01,52,12.90
2013,09,02,01,53,12.90
2013,09,02,01,54,12.90
2013,09,02,01,55,12.90
2013,09,02,01,56,12.90
2013,09,02,01,57,12.90
2013,09,02,01,58,13.00
2013,09,02,01,59,13.00
2013,09,02,02,00,13.00
2013,09,02,02,01,13.00
2013,09,02,02,02,13.00
2013,09,02,02,03,13.00
2013,09,02,02,04,13.00
2013,09,02,02,05,13.00
2013,09,02,02,06,13.00
2013,09,02,02,07,13.10
2013,09,02,02,08,13.10
2013,09,02,02,09,13.10
2013,09,02,02,10,13.10
2013,09,02,02,11,13.10
2013,09,02,02,12,13.10
2013,09,02,02,13,13.10
2013,09,02,02,14,13.10
2013,09,02,02,15,13.10
2013,09,02,02,16,13.10
2013,09,02,02,17,13.10
2013,09,02,02,18,13.00
2013,09,02,02,19,13.00
2013,09,02,02,20,13.00
2013,09,02,02,21,13.00
2013,09,02,02,22,13.00
2013,09,02,02,23,13.00
2013,09,02,02,24,13.00
2013,09,02,02,25,13.00
2013,09,02,02,26,13.00
2013,09,02,02,27,13.00
2013,09,02,02,28,12.90
2013,09,02,02,29,12.90
2013,09,02,02,30,12.90
2013,09,02,02,31,12.90
2013,09,02,02,32,12.90
2013,09,02,02,33,12.90
2013,09,02,02,34,12.80
2013,09,02,02,35,12.80
2013,09,02,02,36,12.80
2013,09,02,02,37,12.80
2013,09,02,02,38,12.80
2013,09,02,02,39,12.80
2013,09,02,02,40,12.80
2013,09,02,02,41,12.80
2013,09,02,02,42,12.80
2013,09,02,02,43,12.80
2013,09,02,02,44,12.80
2013,09,02,02,45,12.80
2013,09,02,02,46,12.80
2013,09,02,02,47,12.80
2013,09,02,02,48,12.80
2013,09,02,02,49,12.80
2013,09,02,02,50,12.80
2013,09,02,02,51,12.80
2013,09,02,02,52,12.80
2013,09,02,02,53,12.80
2013,09,02,02,54,12.80
2013,09,02,02,55,12.90
2013,09,02,02,56,12.90
2013,09,02,02,57,12.90
2013,09,02,02,58,12.90
2013,09,02,02,59,12.90
2013,09,02,03,00,13.00
2013,09,02,03,01,13.00
2013,09,02,03,02,13.00
2013,09,02,03,03,13.00
2013,09,02,03,04,13.10
2013,09,02,03,05,13.10
2013,09,02,03,06,13.10
2013,09,02,03,07,13.10
2013,09,02,03,08,13.10
2013,09,02,03,09,13.10
2013,09,02,03,10,13.10
2013,09,02,03,11,13.10
2013,09,02,03,12,13.10
2013,09,02,03,13,13.10
2013,09,02,03,14,13.10
2013,09,02,03,15,13.10
2013,09,02,03,16,13.10
2013,09,02,03,17,13.10
2013,09,02,03,18,13.10
2013,09,02,03,19,13.20
2013,09,02,03,20,13.20
2013,09,02,03,21,13.20
2013,09,02,03,22,13.10
2013,09,02,03,23,13.10
2013,09,02,03,24,13.10
2013,09,02,03,25,13.10
2013,09,02,03,26,13.10
2013,09,02,03,27,13.10
2013,09,02,03,28,13.10
2013,09,02,03,29,13.10
2013,09,02,03,30,13.10
2013,09,02,03,31,13.10
2013,09,02,03,32,13.10
2013,09,02,03,33,13.10
2013,09,02,03,34,13.10
2013,09,02,03,35,13.10
2013,09,02,03,36,13.10
2013,09,02,03,37,13.10
2013,09,02,03,38,13.10
2013,09,02,03,39,13.10
2013,09,02,03,40,13.10
2013,09,02,03,41,13.10
2013,09,02,03,42,13.20
2013,09,02,03,43,13.20
2013,09,02,03,44,13.20
2013,09,02,03,45,13.20
2013,09,02,03,46,13.20
2013,09,02,03,47,13.20
2013,09,02,03,48,13.20
2013,09,02,03,49,13.10
2013,09,02,03,50,13.10
2013,09,02,03,51,13.10
2013,09,02,03,52,13.10
2013,09,02,03,53,13.10
2013,09,02,03,54,13.10
2013,09,02,03,55,13.00
2013,09,02,03,56,13.00
2013,09,02,03,57,13.00
2013,09,02,03,58,13.00
2013,09,02,03,59,13.00
2013,09,02,04,00,13.00
2013,09,02,04,01,12.90
2013,09,02,04,02,12.90
2013,09,02,04,03,12.90
2013,09,02,04,04,12.90
2013,09,02,04,05,12.90
2013,09,02,04,06,12.90
2013,09,02,04,07,12.90
2013,09,02,04,08,12.90
2013,09,02,04,09,12.90
2013,09,02,04,10,12.90
2013,09,02,04,11,12.90
2013,09,02,04,12,13.00
2013,09,02,04,13,13.00
2013,09,02,04,14,13.00
2013,09,02,04,15,13.00
2013,09,02,04,16,13.00
2013,09,02,04,17,13.00
2013,09,02,04,18,13.10
2013,09,02,04,19,13.10
2013,09,02,04,20,13.10
2013,09,02,04,21,13.10
2013,09,02,04,22,13.10
2013,09,02,04,23,13.10
2013,09,02,04,24,13.10
2013,09,02,04,25,13.10
2013,09,02,04,26,13.10
2013,09,02,04,27,13.10
2013,09,02,04,28,13.10
2013,09,02,04,29,13.10
2013,09,02,04,30,13.10
2013,09,02,04,31,13.10
2013,09,02,04,32,13.10
2013,09,02,04,33,13.10
2013,09,02,04,34,13.10
2013,09,02,04,35,13.10
2013,09,02,04,36,13.10
2013,09,02,04,37,13.10
2013,09,02,04,38,13.10
2013,09,02,04,39,13.10
2013,09,02,04,40,13.10
2013,09,02,04,41,13.10
2013,09,02,04,42,13.10
2013,09,02,04,43,13.10
2013,09,02,04,44,13.10
2013,09,02,04,45,13.10
2013,09,02,04,46,13.10
2013,09,02,04,47,13.10
2013,09,02,04,48,13.10
2013,09,02,04,49,13.10
2013,09,02,04,50,13.20
2013,09,02,04,51,13.20
2013,09,02,04,52,13.30
2013,09,02,04,53,13.30
2013,09,02,04,54,13.30
2013,09,02,04,55,13.30
2013,09,02,04,56,13.30
2013,09,02,04,57,13.40
2013,09,02,04,58,13.40
2013,09,02,04,59,13.30
2013,09,02,05,00,13.30
2013,09,02,05,01,13.30
2013,09,02,05,02,13.30
2013,09,02,05,03,13.30
2013,09,02,05,04,13.30
2013,09,02,05,05,13.30
2013,09,02,05,06,13.30
2013,09,02,05,07,13.30
2013,09,02,05,08,13.30
2013,09,02,05,09,13.30
2013,09,02,05,10,13.40
2013,09,02,05,11,13.40
2013,09,02,05,12,13.40
2013,09,02,05,13,13.50
2013,09,02,05,14,13.50
2013,09,02,05,15,13.50
2013,09,02,05,16,13.50
2013,09,02,05,17,13.50
2013,09,02,05,18,13.60
2013,09,02,05,19,13.60
2013,09,02,05,20,13.60
2013,09,02,05,21,13.60
2013,09,02,05,22,13.70
2013,09,02,05,23,13.70
2013,09,02,05,24,13.70
2013,09,02,05,25,13.70
2013,09,02,05,26,13.70
2013,09,02,05,27,13.70
2013,09,02,05,28,13.70
2013,09,02,05,29,13.70
2013,09,02,05,30,13.80
2013,09,02,05,31,13.80
2013,09,02,05,32,13.80
2013,09,02,05,33,13.80
2013,09,02,05,34,13.80
2013,09,02,05,35,13.80
2013,09,02,05,36,13.80
2013,09,02,05,37,13.80
2013,09,02,05,38,13.80
2013,09,02,05,39,13.80
2013,09,02,05,40,13.80
2013,09,02,05,41,13.80
2013,09,02,05,42,13.80
2013,09,02,05,43,13.90
2013,09,02,05,44,13.90
2013,09,02,05,45,13.90
2013,09,02,05,46,13.90
2013,09,02,05,47,14.00
2013,09,02,05,48,14.00
2013,09,02,05,49,14.00
2013,09,02,05,50,14.00
2013,09,02,05,51,14.10
2013,09,02,05,52,14.10
2013,09,02,05,53,14.10
2013,09,02,05,54,14.10
2013,09,02,05,55,14.10
2013,09,02,05,56,14.10
2013,09,02,05,57,14.10
2013,09,02,05,58,14.10
2013,09,02,05,59,14.20
2013,09,02,06,00,14.20
2013,09,02,06,01,14.20
2013,09,02,06,02,14.20
2013,09,02,06,03,14.20
2013,09,02,06,04,14.20
2013,09,02,06,05,14.20
2013,09,02,06,06,14.20
2013,09,02,06,07,14.20
2013,09,02,06,08,14.20
2013,09,02,06,09,14.20
2013,09,02,06,10,14.20
2013,09,02,06,11,14.20
2013,09,02,06,12,14.20
2013,09,02,06,13,14.20
2013,09,02,06,14,14.20
2013,09,02,06,15,14.20
2013,09,02,06,16,14.20
2013,09,02,06,17,14.20
2013,09,02,06,18,14.20
2013,09,02,06,19,14.20
2013,09,02,06,20,14.20
2013,09,02,06,21,14.20
2013,09,02,06,22,14.30
2013,09,02,06,23,14.30
2013,09,02,06,24,14.30
2013,09,02,06,25,14.30
2013,09,02,06,26,14.30
2013,09,02,06,27,14.40
2013,09,02,06,28,14.40
2013,09,02,06,29,14.40
2013,09,02,06,30,14.40
2013,09,02,06,31,14.40
2013,09,02,06,32,14.40
2013,09,02,06,33,14.40
2013,09,02,06,34,14.30
2013,09,02,06,35,14.30
2013,09,02,06,36,14.30
2013,09,02,06,37,14.30
2013,09,02,06,38,14.30
2013,09,02,06,39,14.30
2013,09,02,06,40,14.30
2013,09,02,06,41,14.30
2013,09,02,06,42,14.30
2013,09,02,06,43,14.30
2013,09,02,06,44,14.30
2013,09,02,06,45,14.20
2013,09,02,06,46,14.20
2013,09,02,06,47,14.30
2013,09,02,06,48,14.30
2013,09,02,06,49,14.30
2013,09,02,06,50,14.30
2013,09,02,06,51,14.30
2013,09,02,06,52,14.30
2013,09,02,06,53,14.30
2013,09,02,06,54,14.30
2013,09,02,06,55,14.30
2013,09,02,06,56,14.30
2013,09,02,06,57,14.30
2013,09,02,06,58,14.30
2013,09,02,06,59,14.30
2013,09,02,07,00,14.30
2013,09,02,07,01,14.30
2013,09,02,07,02,14.30
2013,09,02,07,03,14.30
2013,09,02,07,04,14.30
2013,09,02,07,05,14.30
2013,09,02,07,06,14.30
2013,09,02,07,07,14.30
2013,09,02,07,08,14.30
2013,09,02,07,09,14.30
2013,09,02,07,10,14.30
2013,09,02,07,11,14.30
2013,09,02,07,12,14.30
2013,09,02,07,13,14.30
2013,09,02,07,14,14.30
2013,09,02,07,15,14.30
2013,09,02,07,16,14.30
2013,09,02,07,17,14.30
2013,09,02,07,18,14.30
2013,09,02,07,19,14.30
2013,09,02,07,20,14.30
2013,09,02,07,21,14.30
2013,09,02,07,22,14.30
2013,09,02,07,23,14.30
2013,09,02,07,24,14.30
2013,09,02,07,25,14.30
2013,09,02,07,26,14.40
2013,09,02,07,27,14.40
2013,09,02,07,28,14.40
2013,09,02,07,29,14.40
2013,09,02,07,30,14.40
2013,09,02,07,31,14.40
2013,09,02,07,32,14.40
2013,09,02,07,33,14.40
2013,09,02,07,34,14.40
2013,09,02,07,35,14.40
2013,09,02,07,36,14.40
2013,09,02,07,37,14.40
2013,09,02,07,38,14.40
2013,09,02,07,39,14.50
2013,09,02,07,40,14.50
2013,09,02,07,41,14.50
2013,09,02,07,42,14.50
2013,09,02,07,43,14.50
2013,09,02,07,44,14.50
2013,09,02,07,45,14.50
2013,09,02,07,46,14.50
2013,09,02,07,47,14.50
2013,09,02,07,48,14.50
2013,09,02,07,49,14.50
2013,09,02,07,50,14.60
2013,09,02,07,51,14.60
2013,09,02,07,52,14.60
2013,09,02,07,53,14.60
2013,09,02,07,54,14.60
2013,09,02,07,55,14.60
2013,09,02,07,56,14.60
2013,09,02,07,57,14.60
2013,09,02,07,58,14.70
2013,09,02,07,59,14.70
2013,09,02,08,00,14.70
2013,09,02,08,01,14.70
2013,09,02,08,02,14.70
2013,09,02,08,03,14.70
2013,09,02,08,04,14.70
2013,09,02,08,05,14.70
2013,09,02,08,06,14.70
2013,09,02,08,07,14.70
2013,09,02,08,08,14.70
2013,09,02,08,09,14.70
2013,09,02,08,10,14.70
2013,09,02,08,11,14.70
2013,09,02,08,12,14.70
2013,09,02,08,13,14.70
2013,09,02,08,14,14.80
2013,09,02,08,15,14.80
2013,09,02,08,16,14.80
2013,09,02,08,17,14.80
2013,09,02,08,18,14.80
2013,09,02,08,19,14.80
2013,09,02,08,20,14.80
2013,09,02,08,21,14.80
2013,09,02,08,22,14.80
2013,09,02,08,23,14.80
2013,09,02,08,24,14.80
2013,09,02,08,25,14.80
2013,09,02,08,26,14.80
2013,09,02,08,27,14.80
2013,09,02,08,28,14.80
2013,09,02,08,29,14.80
2013,09,02,08,30,14.80
2013,09,02,08,31,14.80
2013,09,02,08,32,14.80
2013,09,02,08,33,14.80
2013,09,02,08,34,14.80
2013,09,02,08,35,14.80
2013,09,02,08,36,14.80
2013,09,02,08,37,14.80
2013,09,02,08,38,14.80
2013,09,02,08,39,14.80
2013,09,02,08,40,14.80
2013,09,02,08,41,14.80
2013,09,02,08,42,14.80
2013,09,02,08,43,14.80
2013,09,02,08,44,14.80
2013,09,02,08,45,14.80
2013,09,02,08,46,14.80
2013,09,02,08,47,14.80
2013,09,02,08,48,14.80
2013,09,02,08,49,14.80
2013,09,02,08,50,14.80
2013,09,02,08,51,14.80
2013,09,02,08,52,14.80
2013,09,02,08,53,14.80
2013,09,02,08,54,14.80
2013,09,02,08,55,14.80
2013,09,02,08,56,14.80
2013,09,02,08,57,14.80
2013,09,02,08,58,14.80
2013,09,02,08,59,14.80
2013,09,02,09,00,14.80
2013,09,02,09,01,14.80
2013,09,02,09,02,14.80
2013,09,02,09,03,14.80
2013,09,02,09,04,14.80
2013,09,02,09,05,14.80
2013,09,02,09,06,14.90
2013,09,02,09,07,14.90
2013,09,02,09,08,14.90
2013,09,02,09,09,14.90
2013,09,02,09,10,14.90
2013,09,02,09,11,15.00
2013,09,02,09,12,15.00
2013,09,02,09,13,14.90
2013,09,02,09,14,14.90
2013,09,02,09,15,14.90
2013,09,02,09,16,14.90
2013,09,02,09,17,14.90
2013,09,02,09,18,14.90
2013,09,02,09,19,14.90
2013,09,02,09,20,14.90
2013,09,02,09,21,14.90
2013,09,02,09,22,14.90
2013,09,02,09,23,14.90
2013,09,02,09,24,14.90
2013,09,02,09,25,15.00
2013,09,02,09,26,15.00
2013,09,02,09,27,15.00
2013,09,02,09,28,15.00
2013,09,02,09,29,15.00
2013,09,02,09,30,15.00
2013,09,02,09,31,15.00
2013,09,02,09,32,15.10
2013,09,02,09,33,15.10
2013,09,02,09,34,15.10
2013,09,02,09,35,15.10
2013,09,02,09,36,15.10
2013,09,02,09,37,15.10
2013,09,02,09,38,15.10
2013,09,02,09,39,15.10
2013,09,02,09,40,15.10
2013,09,02,09,41,15.10
2013,09,02,09,42,15.10
2013,09,02,09,43,15.10
2013,09,02,09,44,15.10
2013,09,02,09,45,15.10
2013,09,02,09,46,15.10
2013,09,02,09,47,15.10
2013,09,02,09,48,15.10
2013,09,02,09,49,15.10
2013,09,02,09,50,15.10
2013,09,02,09,51,15.10
2013,09,02,09,52,15.10
2013,09,02,09,53,15.10
2013,09,02,09,54,15.20
2013,09,02,09,55,15.20
2013,09,02,09,56,15.10
2013,09,02,09,57,14.90
2013,09,02,09,58,14.80
2013,09,02,09,59,14.70
2013,09,02,10,00,14.60
2013,09,02,10,01,14.30
2013,09,02,10,02,14.10
2013,09,02,10,03,13.90
2013,09,02,10,04,13.80
2013,09,02,10,05,13.70
2013,09,02,10,06,13.70
2013,09,02,10,07,13.70
2013,09,02,10,08,13.60
2013,09,02,10,09,13.50
2013,09,02,10,10,13.40
2013,09,02,10,11,13.30
2013,09,02,10,12,13.30
2013,09,02,10,13,13.30
2013,09,02,10,14,13.30
2013,09,02,10,15,13.30
2013,09,02,10,16,13.30
2013,09,02,10,17,13.30
2013,09,02,10,18,13.30
2013,09,02,10,19,13.30
2013,09,02,10,20,13.30
2013,09,02,10,21,13.40
2013,09,02,10,22,13.50
2013,09,02,10,23,13.50
2013,09,02,10,24,13.60
2013,09,02,10,25,13.50
2013,09,02,10,26,13.50
2013,09,02,10,27,13.40
2013,09,02,10,28,13.30
2013,09,02,10,29,13.30
2013,09,02,10,30,13.30
2013,09,02,10,31,13.30
2013,09,02,10,32,13.30
2013,09,02,10,33,13.30
2013,09,02,10,34,13.30
2013,09,02,10,35,13.30
2013,09,02,10,36,13.30
2013,09,02,10,37,13.30
2013,09,02,10,38,13.30
2013,09,02,10,39,13.30
2013,09,02,10,40,13.30
2013,09,02,10,41,13.30
2013,09,02,10,42,13.20
2013,09,02,10,43,13.20
2013,09,02,10,44,13.20
2013,09,02,10,45,13.30
2013,09,02,10,46,13.30
2013,09,02,10,47,13.30
2013,09,02,10,48,13.30
2013,09,02,10,49,13.30
2013,09,02,10,50,13.30
2013,09,02,10,51,13.30
2013,09,02,10,52,13.30
2013,09,02,10,53,13.30
2013,09,02,10,54,13.30
2013,09,02,10,55,13.30
2013,09,02,10,56,13.30
2013,09,02,10,57,13.30
2013,09,02,10,58,13.30
2013,09,02,10,59,13.40
2013,09,02,11,00,13.50
2013,09,02,11,01,13.50
2013,09,02,11,02,13.60
2013,09,02,11,03,13.60
2013,09,02,11,04,13.70
2013,09,02,11,05,13.70
2013,09,02,11,06,13.70
2013,09,02,11,07,13.80
2013,09,02,11,08,13.90
2013,09,02,11,09,13.90
2013,09,02,11,10,14.00
2013,09,02,11,11,14.00
2013,09,02,11,12,14.10
2013,09,02,11,13,14.10
2013,09,02,11,14,14.10
2013,09,02,11,15,14.20
2013,09,02,11,16,14.20
2013,09,02,11,17,14.30
2013,09,02,11,18,14.40
2013,09,02,11,19,14.40
2013,09,02,11,20,14.40
2013,09,02,11,21,14.50
2013,09,02,11,22,14.50
2013,09,02,11,23,14.50
2013,09,02,11,24,14.50
2013,09,02,11,25,14.60
2013,09,02,11,26,14.60
2013,09,02,11,27,14.70
2013,09,02,11,28,14.70
2013,09,02,11,29,14.80
2013,09,02,11,30,14.80
2013,09,02,11,31,14.80
2013,09,02,11,32,14.80
2013,09,02,11,33,14.90
2013,09,02,11,34,14.90
2013,09,02,11,35,14.90
2013,09,02,11,36,14.90
2013,09,02,11,37,14.90
2013,09,02,11,38,14.90
2013,09,02,11,39,15.00
2013,09,02,11,40,15.00
2013,09,02,11,41,15.00
2013,09,02,11,42,15.10
2013,09,02,11,43,15.20
2013,09,02,11,44,15.20
2013,09,02,11,45,15.30
2013,09,02,11,46,15.40
2013,09,02,11,47,15.50
2013,09,02,11,48,15.50
2013,09,02,11,49,15.60
2013,09,02,11,50,15.70
2013,09,02,11,51,15.70
2013,09,02,11,52,15.80
2013,09,02,11,53,15.80
2013,09,02,11,54,15.80
2013,09,02,11,55,15.80
2013,09,02,11,56,15.80
2013,09,02,11,57,15.80
2013,09,02,11,58,15.90
2013,09,02,11,59,15.80
2013,09,02,12,00,15.60
2013,09,02,12,01,15.30
2013,09,02,12,02,15.00
2013,09,02,12,03,14.80
2013,09,02,12,04,14.60
2013,09,02,12,05,14.40
2013,09,02,12,06,14.30
2013,09,02,12,07,14.20
2013,09,02,12,08,14.20
2013,09,02,12,09,14.20
2013,09,02,12,10,14.20
2013,09,02,12,11,14.20
2013,09,02,12,12,14.20
2013,09,02,12,13,14.20
2013,09,02,12,14,14.30
2013,09,02,12,15,14.40
2013,09,02,12,16,14.50
2013,09,02,12,17,14.60
2013,09,02,12,18,14.70
2013,09,02,12,19,14.70
2013,09,02,12,20,14.80
2013,09,02,12,21,14.80
2013,09,02,12,22,14.80
2013,09,02,12,23,14.80
2013,09,02,12,24,14.80
2013,09,02,12,25,14.80
2013,09,02,12,26,14.80
2013,09,02,12,27,14.80
2013,09,02,12,28,14.90
2013,09,02,12,29,14.90
2013,09,02,12,30,14.90
2013,09,02,12,31,14.90
2013,09,02,12,32,14.90
2013,09,02,12,33,14.90
2013,09,02,12,34,14.80
2013,09,02,12,35,14.70
2013,09,02,12,36,14.60
2013,09,02,12,37,14.60
2013,09,02,12,38,14.60
2013,09,02,12,39,14.60
2013,09,02,12,40,14.60
2013,09,02,12,41,14.60
2013,09,02,12,42,14.60
2013,09,02,12,43,14.60
2013,09,02,12,44,14.70
2013,09,02,12,45,14.70
2013,09,02,12,46,14.70
2013,09,02,12,47,14.80
2013,09,02,12,48,14.90
2013,09,02,12,49,15.00
2013,09,02,12,50,15.10
2013,09,02,12,51,15.10
2013,09,02,12,52,15.10
2013,09,02,12,53,15.10
2013,09,02,12,54,15.20
2013,09,02,12,55,15.20
2013,09,02,12,56,15.20
2013,09,02,12,57,15.30
2013,09,02,12,58,15.20
2013,09,02,12,59,15.20
2013,09,02,13,00,15.20
2013,09,02,13,01,15.20
2013,09,02,13,02,15.30
2013,09,02,13,03,15.30
2013,09,02,13,04,15.30
2013,09,02,13,05,15.50
2013,09,02,13,06,15.60
2013,09,02,13,07,15.80
2013,09,02,13,08,15.90
2013,09,02,13,09,16.00
2013,09,02,13,10,16.10
2013,09,02,13,11,16.00
2013,09,02,13,12,16.10
2013,09,02,13,13,16.10
2013,09,02,13,14,16.10
2013,09,02,13,15,16.20
2013,09,02,13,16,16.10
2013,09,02,13,17,15.90
2013,09,02,13,18,15.80
2013,09,02,13,19,15.80
2013,09,02,13,20,15.90
2013,09,02,13,21,15.90
2013,09,02,13,22,15.90
2013,09,02,13,23,15.90
2013,09,02,13,24,15.90
2013,09,02,13,25,16.00
2013,09,02,13,26,16.10
2013,09,02,13,27,16.20
2013,09,02,13,28,16.20
2013,09,02,13,29,16.10
2013,09,02,13,30,16.10
2013,09,02,13,31,16.10
2013,09,02,13,32,16.10
2013,09,02,13,33,16.20
2013,09,02,13,34,16.30
2013,09,02,13,35,16.40
2013,09,02,13,36,16.40
2013,09,02,13,37,16.40
2013,09,02,13,38,16.30
2013,09,02,13,39,16.30
2013,09,02,13,40,16.30
2013,09,02,13,41,16.30
2013,09,02,13,42,16.30
2013,09,02,13,43,16.30
2013,09,02,13,44,16.30
2013,09,02,13,45,16.30
2013,09,02,13,46,16.30
2013,09,02,13,47,16.30
2013,09,02,13,48,16.30
2013,09,02,13,49,16.40
2013,09,02,13,50,16.40
2013,09,02,13,51,16.40
2013,09,02,13,52,16.40
2013,09,02,13,53,16.40
2013,09,02,13,54,16.40
2013,09,02,13,55,16.30
2013,09,02,13,56,16.30
2013,09,02,13,57,16.40
2013,09,02,13,58,16.40
2013,09,02,13,59,16.50
2013,09,02,14,00,16.60
2013,09,02,14,01,16.50
2013,09,02,14,02,16.40
2013,09,02,14,03,16.40
2013,09,02,14,04,16.30
2013,09,02,14,05,16.20
2013,09,02,14,06,16.10
2013,09,02,14,07,16.20
2013,09,02,14,08,16.20
2013,09,02,14,09,16.30
2013,09,02,14,10,16.40
2013,09,02,14,11,16.40
2013,09,02,14,12,16.40
2013,09,02,14,13,16.40
2013,09,02,14,14,16.50
2013,09,02,14,15,16.60
2013,09,02,14,16,16.70
2013,09,02,14,17,16.90
2013,09,02,14,18,17.00
2013,09,02,14,19,17.10
2013,09,02,14,20,17.30
2013,09,02,14,21,17.40
2013,09,02,14,22,17.50
2013,09,02,14,23,17.70
2013,09,02,14,24,17.80
2013,09,02,14,25,17.80
2013,09,02,14,26,17.80
2013,09,02,14,27,17.90
2013,09,02,14,28,17.90
2013,09,02,14,29,17.80
2013,09,02,14,30,17.70
2013,09,02,14,31,17.50
2013,09,02,14,32,17.40
2013,09,02,14,33,17.30
2013,09,02,14,34,17.30
2013,09,02,14,35,17.30
2013,09,02,14,36,17.30
2013,09,02,14,37,17.50
2013,09,02,14,38,17.50
2013,09,02,14,39,17.50
2013,09,02,14,40,17.60
2013,09,02,14,41,17.60
2013,09,02,14,42,17.60
2013,09,02,14,43,17.50
2013,09,02,14,44,17.20
2013,09,02,14,45,17.00
2013,09,02,14,46,16.80
2013,09,02,14,47,16.60
2013,09,02,14,48,16.40
2013,09,02,14,49,16.30
2013,09,02,14,50,16.20
2013,09,02,14,51,16.00
2013,09,02,14,52,15.90
2013,09,02,14,53,15.80
2013,09,02,14,54,15.80
2013,09,02,14,55,15.70
2013,09,02,14,56,15.60
2013,09,02,14,57,15.60
2013,09,02,14,58,15.60
2013,09,02,14,59,15.60
2013,09,02,15,00,15.70
2013,09,02,15,01,15.80
2013,09,02,15,02,15.80
2013,09,02,15,03,15.80
2013,09,02,15,04,15.80
2013,09,02,15,05,15.80
2013,09,02,15,06,15.90
2013,09,02,15,07,15.90
2013,09,02,15,08,16.00
2013,09,02,15,09,16.20
2013,09,02,15,10,16.30
2013,09,02,15,11,16.30
2013,09,02,15,12,16.30
2013,09,02,15,13,16.40
2013,09,02,15,14,16.30
2013,09,02,15,15,16.30
2013,09,02,15,16,16.30
2013,09,02,15,17,16.20
2013,09,02,15,18,16.20
2013,09,02,15,19,16.20
2013,09,02,15,20,16.20
2013,09,02,15,21,16.30
2013,09,02,15,22,16.40
2013,09,02,15,23,16.40
2013,09,02,15,24,16.40
2013,09,02,15,25,16.40
2013,09,02,15,26,16.40
2013,09,02,15,27,16.40
2013,09,02,15,28,16.40
2013,09,02,15,29,16.40
2013,09,02,15,30,16.30
2013,09,02,15,31,16.30
2013,09,02,15,32,16.30
2013,09,02,15,33,16.30
2013,09,02,15,34,16.30
2013,09,02,15,35,16.40
2013,09,02,15,36,16.50
2013,09,02,15,37,16.70
2013,09,02,15,38,16.80
2013,09,02,15,39,16.90
2013,09,02,15,40,16.90
2013,09,02,15,41,16.90
2013,09,02,15,42,16.90
2013,09,02,15,43,16.80
2013,09,02,15,44,16.70
2013,09,02,15,45,16.70
2013,09,02,15,46,16.50
2013,09,02,15,47,16.40
2013,09,02,15,48,16.30
2013,09,02,15,49,16.30
2013,09,02,15,50,16.30
2013,09,02,15,51,16.30
2013,09,02,15,52,16.40
2013,09,02,15,53,16.40
2013,09,02,15,54,16.60
2013,09,02,15,55,16.80
2013,09,02,15,56,17.00
2013,09,02,15,57,17.20
2013,09,02,15,58,17.30
2013,09,02,15,59,17.30
2013,09,02,16,00,17.30
2013,09,02,16,01,17.30
2013,09,02,16,02,17.30
2013,09,02,16,03,17.20
2013,09,02,16,04,17.10
2013,09,02,16,05,17.00
2013,09,02,16,06,17.00
2013,09,02,16,07,16.90
2013,09,02,16,08,16.80
2013,09,02,16,09,16.70
2013,09,02,16,10,16.70
2013,09,02,16,11,16.70
2013,09,02,16,12,16.70
2013,09,02,16,13,16.70
2013,09,02,16,14,16.70
2013,09,02,16,15,16.80
2013,09,02,16,16,16.80
2013,09,02,16,17,16.80
2013,09,02,16,18,16.80
2013,09,02,16,19,16.80
2013,09,02,16,20,16.80
2013,09,02,16,21,16.90
2013,09,02,16,22,16.90
2013,09,02,16,23,16.90
2013,09,02,16,24,16.90
2013,09,02,16,25,16.90
2013,09,02,16,26,16.80
2013,09,02,16,27,16.70
2013,09,02,16,28,16.70
2013,09,02,16,29,16.70
2013,09,02,16,30,16.70
2013,09,02,16,31,16.60
2013,09,02,16,32,16.40
2013,09,02,16,33,16.40
2013,09,02,16,34,16.40
2013,09,02,16,35,16.40
2013,09,02,16,36,16.40
2013,09,02,16,37,16.40
2013,09,02,16,38,16.40
2013,09,02,16,39,16.40
2013,09,02,16,40,16.40
2013,09,02,16,41,16.40
2013,09,02,16,42,16.50
2013,09,02,16,43,16.60
2013,09,02,16,44,16.60
2013,09,02,16,45,16.60
2013,09,02,16,46,16.50
2013,09,02,16,47,16.40
2013,09,02,16,48,16.50
2013,09,02,16,49,16.60
2013,09,02,16,50,16.60
2013,09,02,16,51,16.70
2013,09,02,16,52,16.70
2013,09,02,16,53,16.80
2013,09,02,16,54,16.90
2013,09,02,16,55,17.00
2013,09,02,16,56,17.00
2013,09,02,16,57,17.10
2013,09,02,16,58,17.10
2013,09,02,16,59,17.20
2013,09,02,17,00,17.20
2013,09,02,17,01,17.20
2013,09,02,17,02,17.20
2013,09,02,17,03,17.30
2013,09,02,17,04,17.30
2013,09,02,17,05,17.30
2013,09,02,17,06,17.30
2013,09,02,17,07,17.40
2013,09,02,17,08,17.40
2013,09,02,17,09,17.50
2013,09,02,17,10,17.60
2013,09,02,17,11,17.60
2013,09,02,17,12,17.70
2013,09,02,17,13,17.70
2013,09,02,17,14,17.80
2013,09,02,17,15,17.90
2013,09,02,17,16,17.90
2013,09,02,17,17,17.90
2013,09,02,17,18,17.90
2013,09,02,17,19,17.90